{"data":{"norad_id":60922,"intl_designator":"2024-154V","name":"STARLINK-32274","alt_names":[],"object_type":"PAYLOAD","status":"ACTIVE","operator":null,"country":"US","launch_date":"2024-08-31","launch_site_code":"AFETR","launch_vehicle":null,"mission":null,"orbit_class":"UNKNOWN","rcs_meters":null,"size_class":null,"mass_kg":null,"dimensions":null,"purposes":["comms"],"wikipedia_slug":null,"has_3d_model":false,"image_url":null,"decayed_at":null,"tle_current":{"epoch":"2026-09-21T19:22:42.366720Z","epoch_age_seconds":75471,"freshness":"FRESH","line1":"1 60922U 24154V   26264.80743480 -.00000560  00000+0 -54338-5 0  9999","line2":"2 60922  53.1604  91.3232 0001219  92.0247 268.0895 15.34391112116395","mean_motion":15.34391112,"eccentricity":0.0001219,"inclination_deg":53.1604,"raan_deg":91.3232,"arg_perigee_deg":92.0247,"mean_anomaly_deg":268.0895,"bstar":-5.4338e-6,"rev_number":11639,"period_min":93.848301696888,"perigee_km":461.89575569815,"apogee_km":463.56355898921,"semimajor_km":6840.8666573437,"source":"CELESTRAK","updated_at":"2026-09-22T09:00:49.287466Z"}}}